CW7443 Weather Reports


Display with metric or nautical units.
time (UTC)temp
F
wind
direction
speed
MPH
gust
MPH
rain 1hr
in
rain 24hr
in
rain mn
in
humidity
%
barometer
mb
20260503013333 41 49 0.0 0.0 0.00 0.00 0.00 76 1017.3
20260503012818 41 49 0.0 0.0 0.00 0.00 0.00 76 1017.2
20260503012347 42 49 0.0 0.0 0.00 0.00 0.00 77 1017.2
20260503011832 42 49 0.0 0.0 0.00 0.00 0.00 78 1017.2
20260503011354 42 49 0.0 0.0 0.00 0.00 0.00 78 1017.2
20260503010819 42 49 0.0 0.0 0.00 0.00 0.00 78 1017.2
20260503010330 42 49 0.0 0.0 0.00 0.00 0.00 77 1017.2
20260503005836 42 49 0.0 0.0 0.00 0.00 0.00 78 1017.2
20260503005341 42 49 0.0 0.0 0.00 0.00 0.00 77 1017.2
20260503004825 42 49 0.0 0.0 0.00 0.00 0.00 76 1017.2
20260503004327 43 49 0.0 0.0 0.00 0.00 0.00 73 1017.1
20260503003851 43 49 0.0 0.0 0.00 0.00 0.00 72 1017.1
20260503003320 43 49 0.0 0.0 0.00 0.00 0.00 72 1017.1
20260503002830 43 49 0.0 0.0 0.00 0.00 0.00 71 1017.0
20260503002335 43 49 0.0 0.0 0.00 0.00 0.00 70 1017.0
20260503001821 43 49 0.0 0.0 0.00 0.00 0.00 69 1017.0
20260503001328 43 49 0.0 0.0 0.00 0.00 0.00 69 1016.9
20260503000816 43 49 0.0 0.0 0.00 0.00 0.00 68 1016.9
20260503000325 43 49 0.0 0.0 0.00 0.00 0.00 66 1016.9
20260502235826 43 49 0.0 0.0 0.00 0.00 0.00 67 1016.8
20260502235332 43 49 0.0 0.0 0.00 0.00 0.00 65 1016.8
20260502234817 44 49 0.0 0.0 0.00 0.00 0.00 66 1016.8
20260502234321 44 49 0.0 3.0 0.00 0.00 0.00 65 1016.7
20260502233830 44 49 0.0 3.0 0.00 0.00 0.00 65 1016.7
20260502233319 44 19 0.0 0.0 0.00 0.00 0.00 66 1016.7
20260502232823 44 19 0.0 0.0 0.00 0.00 0.00 66 1016.7
20260502232328 44 19 0.0 0.0 0.00 0.00 0.00 65 1016.7
20260502231812 44 21 0.0 1.0 0.00 0.00 0.00 64 1016.7
20260502231319 44 21 0.0 5.0 0.00 0.00 0.00 65 1016.7
20260502230824 44 20 0.0 5.0 0.00 0.00 0.00 65 1016.7
20260502230332 44 41 0.0 4.0 0.00 0.00 0.00 65 1016.7
20260502225836 44 41 1.0 4.0 0.00 0.00 0.00 62 1016.7
20260502225318 44 41 0.0 1.0 0.00 0.00 0.00 66 1016.7
20260502224828 44 42 0.0 3.0 0.00 0.00 0.00 62 1016.7
20260502224331 44 42 0.0 3.0 0.00 0.00 0.00 62 1016.7
20260502223859 45 49 0.0 3.0 0.00 0.00 0.00 62 1016.7
20260502223323 45 30 0.0 0.0 0.00 0.00 0.00 64 1016.7
20260502222825 45 30 0.0 3.0 0.00 0.00 0.00 63 1016.7
20260502222336 45 30 0.0 3.0 0.00 0.00 0.00 65 1016.7
20260502221821 45 32 0.0 2.0 0.00 0.00 0.00 64 1016.7
20260502221323 45 32 0.0 4.0 0.00 0.00 0.00 63 1016.7
20260502220829 45 32 0.0 4.0 0.00 0.00 0.00 61 1016.7
20260502220334 45 31 0.0 4.0 0.00 0.00 0.00 62 1016.7
20260502215818 45 50 0.0 4.0 0.00 0.00 0.00 65 1016.7
20260502215327 46 49 1.0 5.0 0.00 0.00 0.00 63 1016.7
20260502214837 46 29 1.0 5.0 0.00 0.00 0.00 62 1016.7
20260502214321 45 88 0.0 6.0 0.00 0.00 0.00 67 1016.6
20260502213826 45 24 0.0 6.0 0.00 0.00 0.00 64 1016.6
20260502213332 45 47 1.0 4.0 0.00 0.00 0.00 65 1016.6
20260502212835 45 51 0.0 4.0 0.00 0.00 0.00 65 1016.2
20260502212320 46 51 1.0 4.0 0.00 0.00 0.00 63 1016.2
20260502211826 46 79 0.0 3.0 0.00 0.00 0.00 64 1016.2
20260502211331 46 113 0.0 6.0 0.00 0.00 0.00 64 1016.2
20260502210857 46 53 1.0 6.0 0.00 0.00 0.00 61 1016.2
20260502210322 46 26 1.0 7.0 0.00 0.00 0.00 63 1016.2
20260502205830 46 55 0.0 5.0 0.00 0.00 0.00 62 1016.2
20260502205318 46 37 2.0 5.0 0.00 0.00 0.00 59 1016.2
20260502204828 46 5 1.0 4.0 0.00 0.00 0.00 59 1016.2
20260502204333 46 34 0.0 4.0 0.00 0.00 0.00 62 1016.2
20260502203858 46 5 2.0 4.0 0.00 0.00 0.00 59 1016.2
20260502203324 47 63 0.0 3.0 0.00 0.00 0.00 62 1016.2
20260502202828 47 69 0.0 4.0 0.00 0.00 0.00 61 1016.2
20260502202312 47 30 0.0 4.0 0.00 0.00 0.00 61 1016.2
20260502201823 47 32 0.0 4.0 0.00 0.00 0.00 62 1016.2
20260502201326 47 28 0.0 4.0 0.00 0.00 0.00 62 1016.3
20260502200831 47 30 1.0 4.0 0.00 0.00 0.00 60 1016.3
20260502200315 47 25 0.0 3.0 0.00 0.00 0.00 68 1016.3
20260502195825 46 25 0.0 3.0 0.00 0.00 0.00 63 1016.6
20260502195330 46 32 1.0 4.0 0.00 0.00 0.00 64 1016.6
20260502194813 46 32 0.0 4.0 0.00 0.00 0.00 66 1016.6
20260502194318 46 42 0.0 3.0 0.00 0.00 0.00 67 1016.7
20260502193827 46 42 0.0 6.0 0.00 0.00 0.00 70 1016.7
20260502193352 45 100 1.0 6.0 0.00 0.00 0.00 67 1016.7
20260502192834 45 47 1.0 6.0 0.00 0.00 0.00 65 1016.7
20260502192320 46 19 0.0 6.0 0.00 0.00 0.00 67 1016.7
20260502191827 46 41 0.0 4.0 0.00 0.00 0.00 67 1016.7
20260502191329 46 41 0.0 4.0 0.00 0.00 0.00 66 1016.7
20260502190837 46 27 0.0 4.0 0.00 0.00 0.00 63 1016.7
20260502190325 46 49 0.0 3.0 0.00 0.00 0.00 66 1016.7
20260502185825 46 49 0.0 3.0 0.00 0.00 0.00 64 1016.7
20260502185353 46 58 1.0 5.0 0.00 0.00 0.00 64 1016.7
20260502184817 46 34 1.0 5.0 0.00 0.00 0.00 60 1016.7
20260502184322 47 20 0.0 4.0 0.00 0.00 0.00 58 1016.7
20260502183847 47 21 1.0 5.0 0.00 0.00 0.00 59 1016.7
20260502183331 48 21 1.0 5.0 0.00 0.00 0.00 58 1016.7
20260502182835 48 43 0.0 5.0 0.00 0.00 0.00 59 1016.7
20260502182321 48 34 1.0 6.0 0.00 0.00 0.00 60 1016.7
20260502181827 47 28 0.0 6.0 0.00 0.00 0.00 59 1016.7
20260502181332 47 94 1.0 6.0 0.00 0.00 0.00 58 1016.7
20260502180838 47 44 1.0 6.0 0.00 0.00 0.00 57 1016.7
20260502180326 46 212 1.0 6.0 0.00 0.00 0.00 61 1016.7
20260502170318 46 169 1.0 5.0 0.00 0.00 0.00 62 1016.8
20260502164318 45 37 0.0 4.0 0.00 0.00 0.00 64 1017.1
20260502163824 45 34 1.0 4.0 0.00 0.00 0.00 62 1017.1
20260502163332 45 355 1.0 5.0 0.00 0.00 0.00 65 1017.1
20260502162835 45 71 0.0 5.0 0.00 0.00 0.00 64 1017.1
20260502162321 46 63 0.0 6.0 0.00 0.00 0.00 63 1017.1
20260502161826 46 63 0.0 6.0 0.00 0.00 0.00 62 1017.1
20260502161330 46 198 1.0 4.0 0.00 0.00 0.00 60 1017.1
20260502160819 46 55 0.0 5.0 0.00 0.00 0.00 63 1017.1
20260502160327 46 29 1.0 5.0 0.00 0.00 0.00 63 1017.1
20260502152341 45 287 0.0 6.0 0.00 0.00 0.00 69 1017.1
20260502151830 44 111 1.0 6.0 0.00 0.00 0.00 66 1017.1
20260502151331 45 188 2.0 6.0 0.00 0.00 0.00 63 1016.9
20260502150837 45 66 0.0 8.0 0.00 0.00 0.00 69 1016.9
20260502150323 44 188 1.0 8.0 0.00 0.00 0.00 65 1016.9
20260502130325 38 177 0.0 3.0 0.00 0.00 0.00 79 1016.7
20260502123317 37 33 1.0 4.0 0.00 0.00 0.00 82 1016.7
20260502122818 37 38 0.0 4.0 0.00 0.00 0.00 83 1016.3
20260502122323 36 38 1.0 4.0 0.00 0.00 0.00 84 1016.3
20260502121848 36 36 0.0 2.0 0.00 0.00 0.00 85 1016.3
20260502121330 36 36 0.0 6.0 0.00 0.00 0.00 85 1016.2
20260502120820 36 32 1.0 6.0 0.00 0.00 0.00 85 1016.2
20260502120326 36 34 0.0 1.0 0.00 0.00 0.00 87 1016.2
20260502115847 36 34 0.0 3.0 0.00 0.00 0.00 88 1016.2
20260502115331 35 33 0.0 3.0 0.00 0.00 0.00 88 1016.2
20260502114836 35 63 0.0 0.0 0.00 0.00 0.00 88 1016.2
20260502114322 35 63 0.0 2.0 0.00 0.00 0.00 89 1016.2
20260502113827 35 63 0.0 2.0 0.00 0.00 0.00 89 1016.2
20260502113319 35 24 0.0 0.0 0.00 0.00 0.00 90 1016.2
20260502112819 34 24 0.0 0.0 0.00 0.00 0.00 90 1016.4
20260502112327 34 24 0.0 0.0 0.00 0.00 0.00 90 1016.4
20260502111816 34 24 0.0 0.0 0.00 0.00 0.00 90 1016.4
20260502111341 34 24 0.0 0.0 0.00 0.00 0.00 91 1016.2
20260502110847 34 24 0.0 0.0 0.00 0.00 0.00 91 1016.2
20260502110350 34 24 0.0 0.0 0.00 0.00 0.00 92 1016.2
20260502105837 34 24 0.0 0.0 0.00 0.00 0.00 92 1016.2
20260502105341 34 24 0.0 0.0 0.00 0.00 0.00 92 1016.2
20260502104825 34 24 0.0 0.0 0.00 0.00 0.00 93 1016.2
20260502104350 34 24 0.0 0.0 0.00 0.00 0.00 93 1016.2
20260502103833 34 24 0.0 0.0 0.00 0.00 0.00 93 1016.2
20260502103317 34 24 0.0 0.0 0.00 0.00 0.00 93 1016.2
20260502102820 34 24 0.0 0.0 0.00 0.00 0.00 94 1016.2
20260502102325 34 24 0.0 0.0 0.00 0.00 0.00 94 1016.2
20260502101830 34 24 0.0 0.0 0.00 0.00 0.00 94 1016.2
20260502101335 34 24 0.0 0.0 0.00 0.00 0.00 94 1016.2
20260502100821 34 24 0.0 0.0 0.00 0.00 0.00 95 1016.2
20260502100347 34 24 0.0 0.0 0.00 0.00 0.00 95 1016.2
20260502091323 35 24 0.0 0.0 0.00 0.00 0.00 96 1016.2
20260502090829 35 24 0.0 0.0 0.00 0.00 0.00 96 1016.2
20260502090325 35 24 0.0 0.0 0.00 0.00 0.00 96 1016.2
20260502071333 37 24 0.0 0.0 0.00 0.00 0.00 99 1016.1
20260502070821 38 24 0.0 0.0 0.00 0.00 0.00 99 1016.1
20260502070330 38 24 0.0 0.0 0.00 0.00 0.00 99 1016.1
20260502065815 38 24 0.0 0.0 0.00 0.00 0.00 99 1016.2
20260502065323 38 24 0.0 0.0 0.00 0.00 0.00 99 1016.2
20260502064849 38 24 0.0 0.0 0.00 0.00 0.00 99 1016.2
20260502064354 38 24 0.0 0.0 0.00 0.00 0.00 99 1016.2
20260502063840 38 24 0.0 0.0 0.00 0.00 0.00 99 1016.2
20260502063330 38 24 0.0 0.0 0.00 0.00 0.00 98 1016.2
20260502062832 38 24 0.0 0.0 0.00 0.00 0.00 98 1016.2
20260502062315 38 24 0.0 0.0 0.00 0.00 0.00 99 1016.2
20260502061823 39 24 0.0 0.0 0.00 0.00 0.00 99 1016.2
20260502061325 39 24 0.0 0.0 0.00 0.00 0.00 98 1016.3
20260502060831 39 24 0.0 0.0 0.00 0.00 0.00 98 1016.3
20260502060325 39 23 0.0 0.0 0.00 0.00 0.00 98 1016.3
20260502055828 39 24 0.0 0.0 0.00 0.00 0.00 98 1016.5
20260502055333 39 23 0.0 0.0 0.00 0.00 0.00 98 1016.5
20260502054819 40 24 0.0 0.0 0.00 0.00 0.00 98 1016.5
20260502054322 40 24 0.0 0.0 0.00 0.00 0.00 98 1016.6
20260502053848 40 24 0.0 0.0 0.00 0.00 0.00 98 1016.6
20260502053335 40 24 0.0 0.0 0.00 0.00 0.00 98 1016.6
20260502052838 39 23 0.0 0.0 0.00 0.00 0.00 98 1016.5
20260502052323 39 23 0.0 0.0 0.00 0.00 0.00 98 1016.5
20260502051828 39 24 0.0 0.0 0.00 0.00 0.00 98 1016.5
20260502051329 39 24 0.0 0.0 0.00 0.00 0.00 97 1016.6
20260502050834 39 24 0.0 0.0 0.00 0.00 0.00 97 1016.6
20260502050339 39 23 0.0 0.0 0.00 0.00 0.00 97 1016.6
20260502045821 39 24 0.0 0.0 0.00 0.00 0.00 97 1016.4
20260502045332 39 24 0.0 0.0 0.00 0.00 0.00 97 1016.4
20260502044817 39 24 0.0 0.0 0.00 0.00 0.00 97 1016.4
20260502044339 39 23 0.0 0.0 0.00 0.00 0.00 97 1016.5
20260502043824 39 24 0.0 0.0 0.00 0.00 0.00 97 1016.5
20260502043353 39 24 0.0 0.0 0.00 0.00 0.00 96 1016.5
20260502042854 39 24 0.0 0.0 0.00 0.00 0.00 96 1016.5
20260502042319 39 24 0.0 0.0 0.00 0.00 0.00 96 1016.5
20260502041824 39 24 0.0 0.0 0.00 0.00 0.00 96 1016.5
20260502041325 39 24 0.0 0.0 0.00 0.00 0.00 96 1016.5
20260502040833 40 24 0.0 0.0 0.00 0.00 0.00 95 1016.5
20260502040319 40 24 0.0 0.0 0.00 0.00 0.00 95 1016.5
20260502035820 40 24 0.0 0.0 0.00 0.00 0.00 94 1016.5
20260502035325 40 24 0.0 0.0 0.00 0.00 0.00 93 1016.5
20260502034815 40 24 0.0 0.0 0.00 0.00 0.00 92 1016.5
20260502034322 40 24 0.0 0.0 0.00 0.00 0.00 92 1016.6
20260502033826 41 24 0.0 0.0 0.00 0.00 0.00 92 1016.6
20260502033331 41 23 0.0 0.0 0.00 0.00 0.00 92 1016.6
20260502032833 41 24 0.0 0.0 0.00 0.00 0.00 91 1016.7
20260502032337 41 24 0.0 0.0 0.00 0.00 0.00 91 1016.7
20260502031820 42 23 0.0 0.0 0.00 0.00 0.00 91 1016.7
20260502031343 42 23 0.0 0.0 0.00 0.00 0.00 91 1016.7
20260502030830 42 24 0.0 0.0 0.00 0.00 0.00 91 1016.7
20260502030334 42 24 0.0 0.0 0.00 0.00 0.00 92 1016.7
20260502025820 42 24 0.0 0.0 0.00 0.00 0.00 92 1016.7
20260502025329 42 24 0.0 0.0 0.00 0.00 0.00 92 1016.7
20260502024818 42 23 0.0 0.0 0.00 0.00 0.00 92 1016.7
20260502024321 42 24 0.0 0.0 0.00 0.00 0.00 92 1016.5
20260502023847 42 23 0.0 0.0 0.00 0.00 0.00 91 1016.5
20260502023335 42 24 0.0 0.0 0.00 0.00 0.00 91 1016.5
20260502022840 43 23 0.0 0.0 0.00 0.00 0.00 91 1016.2
20260502022324 43 24 0.0 0.0 0.00 0.00 0.00 90 1016.2
20260502021835 43 24 0.0 0.0 0.00 0.00 0.00 89 1016.2
20260502021338 43 24 0.0 0.0 0.00 0.00 0.00 89 1016.2
20260502020822 43 24 0.0 0.0 0.00 0.00 0.00 89 1016.2
20260502020348 43 23 0.0 0.0 0.00 0.00 0.00 88 1016.2
20260502015853 43 24 0.0 0.0 0.00 0.00 0.00 88 1016.0
20260502015337 44 24 0.0 0.0 0.00 0.00 0.00 87 1016.0
20260502014820 44 24 0.0 0.0 0.00 0.00 0.00 86 1016.0
20260502014326 44 23 0.0 0.0 0.00 0.00 0.00 85 1015.8
20260502013832 44 23 0.0 0.0 0.00 0.00 0.00 85 1015.8